Powrót do katalogu

STARLINK-3119

AktywnyŁącznośćVLEO
NORAD 49145·PAYLOAD·🇺🇸 United States

Wystrzelony Sep 14, 2021 z Vandenberg Space Force Base

Loading…

Następne Przeloty (najbliższe 24 godziny)

TLE

ŚwieżeSource: CelesTrak SupGP

Epoka: Sep 14, 2026, 21:37 UTC

1 49145C 21082R   26257.90118056 -.00022093  00000+0 -18516-2 0  2575
2 49145  70.0002 137.3707 0002867 271.7990  11.4851 14.98339191    19

Śledź STARLINK-3119 w czasie rzeczywistym z AllMySat

Download on the App Store